Location: Eckville
(52.3611°N, 114.3680°W)
Time: 22:30:38
(UTC+00:00)

BlueWalker 3 - Visible Passes

Search period start: 10 June 2023 00:00
Search period end: 20 June 2023 00:00
Orbit: 493 x 513 km, 53.2° (Epoch: 09 June)

Date Brightness Start Highest point End Pass type
(mag) Time Alt. Az. Time Alt. Az. Time Alt. Az.
10 Jun 1.9 04:52:58 10° WNW 04:56:48 74° SSW 05:00:41 10° ESE visible
10 Jun 3.3 06:31:48 10° W 06:34:57 24° SW 06:36:05 21° SSW visible
11 Jun 3.3 06:11:22 10° W 06:14:28 23° SW 06:16:01 18° S visible
12 Jun 3.4 05:50:54 10° W 05:53:58 23° SW 05:55:59 16° S visible
13 Jun 3.5 05:30:26 10° W 05:33:29 22° SW 05:36:00 13° S visible
14 Jun 3.6 05:09:57 10° W 05:12:58 22° SW 05:15:59 10° SSE visible
15 Jun 3.6 04:49:28 10° W 04:52:27 22° SW 04:55:26 10° S visible
